FW1396 Weather Reports


Display with metric or nautical units.
time (UTC)temp
F
wind
direction
speed
MPH
gust
MPH
rain 1hr
in
rain 24hr
in
rain mn
in
humidity
%
barometer
mb
20260505232630 54 8 3.0 4.0 0.01 0.15 0.15 94 991.8
20260505232402 54 68 1.0 2.0 0.01 0.15 0.15 94 991.5
20260505231630 54 58 1.0 2.0 0.01 0.15 0.15 94 991.4
20260505231130 54 87 1.0 2.0 0.01 0.15 0.15 94 991.3
20260505230630 54 75 1.0 2.0 0.01 0.15 0.15 94 991.2
20260505230130 54 72 1.0 2.0 0.01 0.15 0.15 94 991.2
20260505225629 54 72 1.0 6.0 0.01 0.15 0.15 94 991.2
20260505225128 54 72 3.0 6.0 0.01 0.15 0.15 94 991.1
20260505224629 54 96 3.0 4.0 0.01 0.15 0.15 94 991.0
20260505224129 54 86 3.0 5.0 0.01 0.15 0.15 94 991.0
20260505223900 54 92 2.0 6.0 0.00 0.14 0.14 93 991.3
20260505223128 54 48 3.0 6.0 0.00 0.14 0.14 93 991.8
20260505222859 54 24 2.0 5.0 0.00 0.14 0.14 93 991.7
20260505222127 54 42 2.0 5.0 0.00 0.14 0.14 93 991.5
20260505221623 55 35 1.0 3.0 0.00 0.14 0.14 93 991.4
20260505221127 55 39 2.0 5.0 0.00 0.14 0.14 93 991.2
20260505220626 55 39 1.0 5.0 0.00 0.14 0.14 93 990.6
20260505220126 55 63 2.0 5.0 0.00 0.14 0.14 93 990.6
20260505215626 55 71 1.0 4.0 0.00 0.14 0.14 93 990.5
20260505215127 55 92 2.0 4.0 0.00 0.14 0.14 93 990.7
20260505214625 55 23 3.0 4.0 0.00 0.14 0.14 93 990.8
20260505214125 55 23 3.0 6.0 0.00 0.14 0.14 93 990.9
20260505213624 56 99 4.0 7.0 0.00 0.14 0.14 93 991.1
20260505213122 56 69 3.0 7.0 0.00 0.14 0.14 93 991.1
20260505212624 56 62 2.0 9.0 0.00 0.14 0.14 93 991.2
20260505212123 56 65 3.0 10.0 0.00 0.14 0.14 93 991.4
20260505211624 56 37 4.0 10.0 0.01 0.14 0.14 93 991.2
20260505211122 56 24 2.0 12.0 0.01 0.14 0.14 93 991.6
20260505210623 57 25 4.0 12.0 0.01 0.14 0.14 94 991.6
20260505210123 57 3 1.0 12.0 0.01 0.14 0.14 94 991.2
20260505205623 57 55 5.0 12.0 0.01 0.14 0.14 94 990.9
20260505205121 57 72 2.0 6.0 0.01 0.14 0.14 95 990.5
20260505204852 57 100 2.0 6.0 0.02 0.14 0.14 95 990.6
20260505204121 57 82 3.0 6.0 0.02 0.14 0.14 94 990.6
20260505203854 57 90 2.0 3.0 0.02 0.14 0.14 94 990.8
20260505203122 57 79 1.0 7.0 0.02 0.14 0.14 94 991.2
20260505202623 57 23 1.0 7.0 0.02 0.14 0.14 94 991.4
20260505202122 57 30 2.0 4.0 0.02 0.14 0.14 94 991.4
20260505201622 57 25 0.0 4.0 0.02 0.13 0.13 94 991.3
20260505201121 57 65 1.0 5.0 0.02 0.13 0.13 94 991.3
20260505200622 57 354 2.0 5.0 0.02 0.13 0.13 94 991.2
20260505200352 58 11 3.0 5.0 0.02 0.13 0.13 93 991.0
20260505195621 58 51 0.0 2.0 0.02 0.13 0.13 94 991.1
20260505195352 58 51 0.0 2.0 0.02 0.13 0.13 94 990.9
20260505194619 0 58 0.0 0.0 0.06 0.12 0.12 991.0
20260505194119 0 58 0.0 0.0 0.06 0.12 0.12 991.1
20260505193618 0 0.0 0.0 0.06 0.12 0.12 991.1
20260505193117 0 0.0 0.0 0.06 0.12 0.12 991.0
20260505192616 0 0.0 0.0 0.06 0.12 0.12 991.1
20260505192115 0 0.0 0.0 0.06 0.12 0.12 991.1
20260505191613 0 0.0 0.0 0.06 0.12 0.12 991.1
20260505191112 0 0.0 0.0 0.06 0.12 0.12 991.0
20260505190611 0 0.0 0.0 0.06 0.12 0.12 991.0
20260505190110 0 69 3.0 4.0 0.06 0.12 0.12 990.9
20260505185608 61 69 3.0 5.0 0.06 0.12 0.12 93 990.8
20260505184609 0 0.0 0.0 0.00 0.06 0.06 990.7
20260505184107 0 0.0 0.0 0.00 0.06 0.06 990.6
20260505183606 0 0.0 0.0 0.00 0.06 0.06 990.4
20260505183105 0 0.0 0.0 0.00 0.06 0.06 990.5
20260505182103 0 0.0 0.0 0.00 0.06 0.06 990.4
20260505181602 0 0.0 0.0 0.00 0.06 0.06 990.4
20260505181101 0 0.0 0.0 0.01 0.06 0.06 990.4
20260505180559 0 0.0 0.0 0.01 0.06 0.06 990.7
20260505180059 0 0.0 0.0 0.01 0.06 0.06 990.7
20260505175557 0 0.0 0.0 0.01 0.06 0.06 990.7
20260505175056 0 0.0 0.0 0.01 0.06 0.06 990.8
20260505174826 0 0.0 0.0 0.01 0.06 0.06 990.9
20260505174053 0 0.0 0.0 0.01 0.06 0.06 990.7
20260505173553 0 0.0 0.0 0.01 0.06 0.06 990.7
20260505173051 0 0.0 0.0 0.01 0.06 0.06 990.8
20260505172550 64 134 1.0 2.0 0.01 0.06 0.06 92 990.7
20260505172049 64 134 1.0 2.0 0.01 0.06 0.06 92 990.6
20260505171548 64 134 1.0 2.0 0.01 0.06 0.06 92 990.3
20260505171048 64 134 0.0 2.0 0.00 0.06 0.06 92 990.3
20260505170548 64 134 0.0 2.0 0.00 0.06 0.06 92 990.4
20260505170321 64 134 0.0 3.0 0.00 0.06 0.06 92 990.6
20260505165548 64 134 1.0 3.0 0.00 0.06 0.06 91 990.6
20260505165047 64 118 0.0 1.0 0.00 0.06 0.06 92 990.8
20260505164819 64 118 0.0 2.0 0.00 0.06 0.06 92 990.9
20260505164047 64 118 0.0 2.0 0.00 0.06 0.06 91 990.9
20260505163547 63 118 0.0 1.0 0.00 0.06 0.06 91 990.9
20260505163046 63 118 0.0 2.0 0.00 0.06 0.06 91 991.0
20260505162545 63 118 1.0 3.0 0.00 0.06 0.06 91 991.0
20260505162045 63 117 1.0 3.0 0.00 0.06 0.06 90 991.1
20260505161550 63 113 0.0 3.0 0.00 0.06 0.06 90 991.2
20260505161046 63 250 2.0 3.0 0.00 0.06 0.06 91 991.2
20260505153042 62 250 0.0 1.0 0.00 0.06 0.06 91 991.0
20260505152314 62 243 2.0 6.0 0.00 0.06 0.06 91 990.8
20260505151544 62 243 2.0 6.0 0.00 0.06 0.06 91 990.8
20260505151314 62 221 3.0 5.0 0.00 0.06 0.06 91 990.7
20260505150813 62 219 2.0 5.0 0.00 0.06 0.06 91 990.7
20260505140540 61 230 0.0 2.0 0.00 0.06 0.06 93 991.1
20260505124536 60 86 2.0 3.0 0.00 0.06 0.06 93 990.9
20260505124037 60 32 2.0 4.0 0.00 0.06 0.06 93 990.8
20260505123536 60 32 2.0 4.0 0.00 0.06 0.06 93 990.8
20260505123036 60 27 2.0 6.0 0.01 0.06 0.06 92 990.5
20260505122535 60 165 1.0 9.0 0.01 0.06 0.06 92 990.4
20260505122036 60 216 5.0 9.0 0.01 0.06 0.06 92 990.3
20260505121537 60 233 2.0 5.0 0.02 0.06 0.06 92 990.1
20260505120804 60 245 3.0 3.0 0.02 0.06 0.06 91 989.4
20260505120305 60 245 3.0 3.0 0.02 0.06 0.06 91 989.5
20260505115534 60 245 2.0 3.0 0.03 0.06 0.06 90 989.5
20260505115034 60 245 0.0 2.0 0.06 0.06 0.06 89 989.5
20260505114533 60 245 0.0 3.0 0.06 0.06 0.06 89 989.5
20260505114033 60 245 1.0 3.0 0.06 0.06 0.06 89 989.6
20260505113533 60 245 0.0 2.0 0.06 0.06 0.06 89 989.9
20260505113304 60 245 0.0 3.0 0.05 0.05 0.05 89 990.1
20260505112533 60 245 2.0 3.0 0.05 0.05 0.05 89 990.2
20260505112031 61 245 1.0 2.0 0.05 0.05 0.05 88 990.1
20260505111533 61 251 2.0 3.0 0.04 0.04 0.04 86 990.2
20260505111031 61 251 2.0 5.0 0.04 0.04 0.04 86 990.1
20260505110532 62 276 1.0 5.0 0.04 0.04 0.04 85 990.0
20260505102026 61 221 0.0 3.0 0.00 0.00 0.00 83 989.4
20260505101526 61 165 0.0 0.0 0.00 0.00 0.00 83 989.4
20260505101024 60 165 0.0 0.0 0.00 0.00 0.00 84 989.5
20260505100525 60 165 0.0 0.0 0.00 0.00 0.00 84 989.5
20260505100024 60 165 0.0 1.0 0.00 0.00 0.00 84 989.7
20260505095525 60 165 0.0 1.0 0.00 0.00 0.00 84 989.8
20260505095024 60 165 0.0 0.0 0.00 0.00 0.00 83 989.9
20260505094525 60 165 0.0 0.0 0.00 0.00 0.00 83 989.7
20260505094023 60 165 0.0 0.0 0.00 0.00 0.00 83 989.5
20260505093021 60 165 0.0 0.0 0.00 0.00 0.00 83 989.7
20260505092521 61 165 0.0 0.0 0.00 0.00 0.00 82 989.7
20260505092023 61 165 0.0 0.0 0.00 0.00 0.00 82 989.8
20260505091522 61 165 0.0 0.0 0.00 0.00 0.00 82 989.9
20260505091021 61 165 0.0 0.0 0.00 0.00 0.00 82 990.0
20260505090522 61 165 0.0 0.0 0.00 0.00 0.00 82 990.2
20260505090254 61 165 0.0 0.0 0.00 0.00 0.00 81 990.0
20260505085522 61 165 0.0 0.0 0.00 0.00 0.00 81 990.1
20260505085252 61 165 0.0 0.0 0.00 0.00 0.00 81 990.1
20260505084520 62 165 0.0 0.0 0.00 0.00 0.00 81 990.1
20260505084021 62 165 0.0 0.0 0.00 0.00 0.00 80 990.1
20260505083752 62 165 0.0 0.0 0.00 0.00 0.00 80 990.2
20260505083020 62 165 0.0 0.0 0.00 0.00 0.00 80 990.2
20260505082519 62 165 0.0 0.0 0.00 0.00 0.00 79 990.3
20260505082019 62 165 0.0 0.0 0.00 0.00 0.00 79 990.3
20260505081519 62 165 0.0 0.0 0.00 0.00 0.00 78 990.3
20260505081017 63 165 0.0 1.0 0.00 0.00 0.00 78 990.4
20260505080517 63 165 0.0 1.0 0.00 0.00 0.00 78 990.3
20260505080016 64 165 0.0 1.0 0.00 0.00 0.00 75 990.2
20260505075747 64 165 0.0 1.0 0.00 0.00 0.00 75 990.2
20260505075015 0 165 0.0 1.0 0.00 0.00 0.00 990.3
20260505074515 0 165 0.0 1.0 0.00 0.00 0.00 990.3
20260505074242 0 165 0.0 0.0 0.00 0.00 0.00 990.4
20260505073744 65 165 1.0 2.0 0.00 0.00 0.00 73 990.3
20260505073013 65 165 1.0 2.0 0.00 0.00 0.00 73 990.1
20260505072513 66 230 0.0 0.0 0.00 0.00 0.00 72 990.3
20260505072013 66 230 0.0 0.0 0.00 0.00 0.00 72 990.0
20260505071512 66 230 0.0 3.0 0.00 0.00 0.00 71 989.9
20260505071012 66 230 1.0 4.0 0.00 0.00 0.00 71 989.8
20260505070743 66 272 3.0 4.0 0.00 0.00 0.00 71 989.7
20260505070012 66 206 4.0 7.0 0.00 0.00 0.00 70 989.7
20260505065511 66 206 4.0 7.0 0.00 0.00 0.00 70 989.7
20260505065010 67 243 3.0 6.0 0.00 0.00 0.00 70 989.5
20260505064511 67 213 4.0 9.0 0.00 0.00 0.00 70 989.4
20260505064009 67 247 4.0 9.0 0.00 0.00 0.00 70 989.5
20260505063509 67 241 3.0 6.0 0.00 0.00 0.00 70 989.5
20260505063010 67 233 1.0 5.0 0.00 0.00 0.00 70 989.6
20260505062510 67 248 2.0 5.0 0.00 0.00 0.00 70 989.8
20260505062011 0 264 0.0 0.0 0.00 0.00 0.00 989.9
20260505061739 0 264 0.0 0.0 0.00 0.00 0.00 990.0
20260505061008 67 258 2.0 4.0 0.00 0.00 0.00 69 990.1
20260505060508 67 258 2.0 6.0 0.00 0.00 0.00 69 990.1
20260505060008 67 245 4.0 6.0 0.00 0.00 0.00 69 990.1
20260505055740 67 255 4.0 7.0 0.00 0.00 0.00 69 990.1
20260505055007 68 252 4.0 7.0 0.00 0.00 0.00 69 990.3
20260505054507 68 251 4.0 7.0 0.00 0.00 0.00 69 990.5
20260505054007 68 255 4.0 6.0 0.00 0.00 0.00 68 990.6
20260505053506 68 243 4.0 7.0 0.00 0.00 0.00 68 990.6
20260505053237 68 266 5.0 7.0 0.00 0.00 0.00 68 990.6
20260505052738 68 212 6.0 9.0 0.00 0.00 0.00 68 990.7
20260505052006 68 230 5.0 9.0 0.00 0.00 0.00 68 990.7
20260505051504 68 244 4.0 9.0 0.00 0.00 0.00 68 990.7
20260505051006 68 264 5.0 9.0 0.00 0.00 0.00 67 990.7
20260505050504 68 261 4.0 6.0 0.00 0.00 0.00 67 990.8
20260505050237 69 257 5.0 10.0 0.00 0.00 0.00 67 990.6
20260505041502 70 245 3.0 7.0 0.00 0.00 0.00 65 991.0
20260505041233 70 254 4.0 7.0 0.00 0.00 0.00 65 991.1
20260505040501 70 255 5.0 7.0 0.00 0.00 0.00 64 991.1
20260505040000 70 259 5.0 6.0 0.00 0.00 0.00 64 990.9
20260505035500 70 271 4.0 6.0 0.00 0.00 0.00 64 991.0
20260505035001 70 266 4.0 6.0 0.00 0.00 0.00 64 991.0
20260505034731 70 254 4.0 6.0 0.00 0.00 0.00 63 991.0
20260505034000 70 244 4.0 10.0 0.00 0.00 0.00 63 991.0
20260505033502 71 243 6.0 10.0 0.00 0.00 0.00 63 991.0
20260505032959 71 238 6.0 7.0 0.00 0.00 0.00 63 991.0
20260505032500 71 241 6.0 10.0 0.00 0.00 0.00 62 991.0
20260505032001 71 241 5.0 10.0 0.00 0.00 0.00 62 991.0
20260505031459 71 251 6.0 10.0 0.00 0.00 0.00 62 991.0
20260505030959 0 261 5.0 6.0 0.00 0.00 0.00 990.9
20260505030457 71 261 5.0 10.0 0.00 0.00 0.00 62 990.8
20260505025958 71 264 5.0 10.0 0.00 0.00 0.00 62 990.7
20260505025456 71 264 6.0 10.0 0.00 0.00 0.00 62 990.6
20260505024956 71 272 5.0 10.0 0.00 0.00 0.00 62 990.7
20260505023957 71 250 6.0 9.0 0.00 0.00 0.00 62 990.5
20260505023503 72 221 3.0 7.0 0.00 0.00 0.00 61 990.4
20260505022956 72 243 4.0 10.0 0.00 0.00 0.00 61 990.4
20260505022457 72 262 6.0 10.0 0.00 0.00 0.00 61 990.2
20260505021958 72 243 4.0 7.0 0.00 0.00 0.00 60 990.1
20260505021457 72 233 5.0 7.0 0.00 0.00 0.00 60 990.0
20260505020956 73 243 3.0 7.0 0.00 0.00 0.00 59 990.0
20260505020456 73 206 3.0 6.0 0.00 0.00 0.00 59 989.9
20260505020227 73 234 4.0 6.0 0.00 0.00 0.00 58 989.9
20260505015456 74 248 5.0 11.0 0.00 0.00 0.00 58 989.9
20260505015227 74 265 4.0 11.0 0.00 0.00 0.00 58 989.9
20260505014456 74 233 7.0 11.0 0.00 0.00 0.00 58 989.7
20260505014228 74 237 5.0 9.0 0.00 0.00 0.00 58 989.7
20260505013455 74 252 5.0 9.0 0.00 0.00 0.00 57 989.8
20260505013226 74 251 6.0 15.0 0.00 0.00 0.00 57 989.8
20260505012454 74 234 6.0 15.0 0.00 0.00 0.00 57 989.6
20260505011955 74 240 3.0 7.0 0.00 0.00 0.00 56 989.6
20260505011455 75 279 5.0 13.0 0.00 0.00 0.00 56 989.6
20260505011226 75 251 6.0 13.0 0.00 0.00 0.00 56 989.6
20260505010456 75 247 5.0 6.0 0.00 0.00 0.00 55 989.6
20260505005954 76 245 4.0 7.0 0.00 0.00 0.00 55 989.6
20260505005455 76 257 4.0 7.0 0.00 0.00 0.00 54 989.6
20260505004954 76 250 4.0 9.0 0.00 0.00 0.00 54 989.5
20260505004455 76 227 6.0 9.0 0.00 0.00 0.00 54 989.5
20260505003955 0 258 7.0 6.0 0.00 0.00 0.00 989.5
20260505003455 77 258 7.0 15.0 0.00 0.00 0.00 53 989.4
20260505003224 77 274 7.0 15.0 0.00 0.00 0.00 53 989.4
20260505002453 77 244 5.0 11.0 0.00 0.00 0.00 52 989.4
20260505001953 77 237 8.0 11.0 0.00 0.00 0.00 52 989.3
20260505001451 78 231 7.0 12.0 0.00 0.00 0.00 51 989.2
20260505000952 78 231 7.0 12.0 0.00 0.00 0.00 51 989.3
20260504235952 78 257 6.0 17.0 0.00 0.00 0.00 51 989.1
20260504235452 78 258 7.0 15.0 0.00 0.00 0.00 51 989.0
20260504234952 78 266 8.0 15.0 0.00 0.00 0.00 50 989.0
20260504234453 79 255 7.0 11.0 0.00 0.00 0.00 50 989.1
20260504233950 79 264 7.0 11.0 0.00 0.00 0.00 49 989.1
20260504233450 79 264 7.0 12.0 0.00 0.00 0.00 49 989.1